Location: Ash Swamp
(41.5170°N, 74.6157°W)
Time: 02:39:22
(UTC+00:00)

Meteor 2-3 Rocket - Pass Details

Date: 14 July 2020
Orbit: 843 x 884 km, 81.2° (Epoch: 14 August)

Event Time Altitude Azimuth Distance (km) Brightness Sun altitude
Exits shadow 03:22:23 47° 131° (SE) 1,124 3.9 -22.6°
Maximum altitude 03:23:24 54° 94° (E) 1,044 3.9 -22.7°
Drops below altitude 10° 03:28:58 10° 19° (NNE) 2,529 6.8 -23.1°
Sets 03:31:29 0° 15° (NNE) 3,477 7.7 -23.3°
